This is the latest recevied weather packets stored in our database for station/object KC0AFB. If no packets are shown the sender has not sent any weather packets the latest 10 day(s).
| Time | Temp. | Humidity | Pressure | Rain* | Wind** | Luminosity | Snow |
|---|---|---|---|---|---|---|---|
| 1778211344 | 10.56° C | 37% | 1009.7 hPa | 0 mm | - | 0 W/m² | - |
| 1778211043 | 10° C | 38% | 1009.5 hPa | 0 mm | - | 0 W/m² | - |
| 1778210738 | 10.56° C | 39% | 1009.6 hPa | 0 mm | - | 0 W/m² | - |
| 1778210437 | 11.11° C | 35% | 1009.5 hPa | 0 mm | - | 0 W/m² | - |
| 1778210133 | 10.56° C | 35% | 1009.5 hPa | 0 mm | - | 0 W/m² | - |
| 1778209829 | 11.11° C | 35% | 1009.6 hPa | 0 mm | - | 0 W/m² | - |
| 1778209526 | 11.11° C | 35% | 1009.5 hPa | 0 mm | - | 0 W/m² | - |
| 1778209224 | 11.11° C | 35% | 1009.4 hPa | 0 mm | - | 0 W/m² | - |
| 1778208919 | 10.56° C | 35% | 1009.4 hPa | 0 mm | - | 0 W/m² | - |
| 1778208617 | 10.56° C | 36% | 1009.3 hPa | 0 mm | - | 0 W/m² | - |
| 1778208313 | 10.56° C | 35% | 1009.5 hPa | 0 mm | - | 0 W/m² | - |
| 1778208010 | 10.56° C | 36% | 1009.4 hPa | 0 mm | - | 0 W/m² | - |
| 1778207706 | 10.56° C | 36% | 1009 hPa | 0 mm | - | 0 W/m² | - |
| 1778207404 | 11.11° C | 36% | 1009.4 hPa | 0 mm | - | 0 W/m² | - |
| 1778207099 | 11.67° C | 36% | 1009 hPa | 0 mm | - | 0 W/m² | - |
| 1778206796 | 11.67° C | 36% | 1008.9 hPa | 0 mm | - | 0 W/m² | - |
| 1778206493 | 11.67° C | 36% | 1009 hPa | 0 mm | - | 0 W/m² | - |
| 1778206189 | 11.67° C | 35% | 1009 hPa | 0 mm | - | 0 W/m² | - |
| 1778205887 | 12.22° C | 35% | 1008.9 hPa | 0 mm | - | 1 W/m² | - |
| 1778205583 | 12.22° C | 35% | 1008.7 hPa | 0 mm | - | 3 W/m² | - |
| 1778205281 | 12.22° C | 35% | 1008.8 hPa | 0 mm | - | 6 W/m² | - |
| 1778204978 | 12.22° C | 35% | 1008.8 hPa | 0 mm | - | 9 W/m² | - |
| 1778204674 | 12.22° C | 36% | 1008.8 hPa | 0 mm | - | 11 W/m² | - |
| 1778204370 | 12.22° C | 36% | 1008.6 hPa | 0 mm | - | 13 W/m² | - |
| 1778204066 | 12.22° C | 36% | 1008.7 hPa | 0 mm | - | 17 W/m² | - |
* Rain latest hour (hover to see other rain measurements)
** Current wind speed in m/s (hover to see current wind gust speed)